Regional Weather Roundup
Issued by NWS Albany, NY

Home | Current Version | Previous Version | Text Only | Print | Product List | Glossary On
Versions: 1 2 3 4 5 6 7 8 9 10 11 12 13 14 15 16 17 18 19 20 21 22 23 24 25 26 27 28 29 30 31 32 33 34 35 36 37 38 39 40 41 42 43 44 45 46 47 48 49 50
000
ASUS41 KALY 251310
RWRALY

NEW YORK STATE HOURLY WEATHER ROUNDUP
NATIONAL WEATHER SERVICE ALBANY NY
900 AM EDT MON MAY 25 2015

NOTE: "FAIR" INDICATES FEW OR NO CLOUDS BELOW 12,000 FEET WITH NO
SIGNIFICANT WEATHER AND/OR NO OBSTRUCTIONS TO VISIBILITY.

NYZ032-033-038>043-046>054-057>066-NYZ062>081-251400-
EAST


CITY           SKY/WX    TMP DP  RH WIND       PRES   REMARKS
ALBANY         LGT RAIN  65  51  60 SW6       30.24S
GLENS FALLS    CLOUDY    60  49  66 SW3       30.24R
POUGHKEEPSIE   CLOUDY    68  55  63 CALM      30.24S
MONTGOMERY     PTSUNNY   68  57  68 S5        30.25S
WHITE PLAINS   CLOUDY    68  56  65 S7        30.27S
ISLIP          PTSUNNY   66  56  70 S7        30.27F
NEW YORK CITY  CLOUDY    68  54  60 S6        30.27S
CENTRAL PARK   CLOUDY    71  56  58 W6        30.30S
$$

NYZ005>009-017-018-044>046-055-056-251400-
CENTRAL


CITY           SKY/WX    TMP DP  RH WIND       PRES   REMARKS
FULTON         CLOUDY    64  52  64 VRB3      30.18S
SYRACUSE       CLOUDY    67  54  63 E6        30.19S
ROME           CLOUDY    64  52  64 E8        30.22F
ELMIRA         CLOUDY    63  54  72 CALM      30.20F
BINGHAMTON     CLOUDY    62  52  69 S6        30.23S
MONTICELLO     PTSUNNY   66  52  59 S3        30.29R
$$

NYZ026>034-041>043-251400-
NORTH


CITY           SKY/WX    TMP DP  RH WIND       PRES   REMARKS
WATERTOWN      LGT RAIN  62  56  80 SE3       30.17F
FORT DRUM      NOT AVBL
MASSENA        CLOUDY    67  52  58 SW15      30.17R
SARANAC LAKE   CLOUDY    62  50  64 SW7       30.21S
PLATTSBURGH    CLOUDY    63  49  60 SE5       30.16S
$$

NYZ001>004-010>016-019>021-251400-
WEST


CITY           SKY/WX    TMP DP  RH WIND       PRES   REMARKS
NIAGARA FALLS  PTSUNNY   68  51  54 S7        30.10S
BUFFALO        CLOUDY    70  50  49 S7        30.11F
DUNKIRK        PTSUNNY   71  51  49 S17G25    30.12S
JAMESTOWN      PTSUNNY   64  50  59 S8        30.19S
WELLSVILLE     PTSUNNY   67  50  54 SW9       30.23S
ROCHESTER      CLOUDY    69  52  54 SE10      30.15F
PENN YAN       CLOUDY    65  55  70 CALM      30.19S
$$

             KEY
       WCI = WIND CHILL INDEX
       VSB = VISIBILITY
       HX  = HEAT INDEX
$$



USA.gov is the U.S. government's official web portal to all federal, state and local government web resources and services.